Location: ??????
(55.2000°N, 38.3000°E)
Time: 18:29:05
(UTC+00:00)

USA 234 - Pass Details

Date: 15 November 2025
Orbit: 1100 x 1107 km, 123.0° (Epoch: 02 December)

Event Time Altitude Azimuth Distance (km) Brightness Sun altitude
Rises 02:11:30 0° 136° (SE) 3,920 6.8 -23.6°
Reaches altitude 10° 02:14:04 10° 141° (SE) 2,964 6.0 -23.2°
Maximum altitude 02:20:25 51° 216° (SW) 1,367 3.5 -22.3°
Enters shadow 02:22:23 39° 263° (W) 1,594 3.6 -22.1°
